RADCAL 1 22698U 93041A 12036.66798731 .00000178 00000-0 70010-4 0 1218 2 22698 089.5488 337.0967 0091673 052.1562 308.7895 14.22934267966273 STRV 1A 1 23125U 94034B 12035.00722934 .00002296 00000-0 59231-3 0 9476 2 23125 007.3908 277.1445 6787729 256.4838 025.0438 02.91987289167195 STRV 1B 1 23126U 94034C 12037.03716037 .00002604 00000-0 47405-3 0 80 2 23126 007.0675 207.2038 6731115 035.8062 354.5588 03.00482446170110 HELIOS 1A 1 23605U 95033A 09342.63424549 .00000084 00000-0 24979-4 0 7570 2 23605 098.0988 276.1119 0001199 153.0459 207.0793 14.63838992770694 REX 2 1 23814U 96014A 12036.89744325 .00000096 00000-0 36734-4 0 4865 2 23814 090.1518 289.3493 0024538 042.6435 317.6658 14.24003767826688 COSMOS 2346 1 24953U 97052A 12037.22710593 .00000063 00000-0 46777-4 0 3446 2 24953 082.9224 314.1384 0038945 305.3199 054.4321 13.79466791723537 ARGOS 1 25634U 99008A 12037.18282599 -.00000061 00000-0 -78700-5 0 5142 2 25634 098.8747 098.0788 0010969 075.5976 284.6386 14.18999320670757 HELIOS 1B 1 25977U 99064A 12037.18873699 .00000503 00000-0 76557-4 0 5440 2 25977 098.2762 084.8368 0002247 099.5899 260.5563 14.78431642654313 MTI 1 26102U 00014A 12037.42389226 .00003434 00000-0 18544-3 0 6036 2 26102 097.3391 172.6014 0018750 012.6203 063.7740 15.15224467655168 STRV 1C 1 26610U 00072C 12035.85713805 -.00000421 00000-0 00000+0 0 3139 2 26610 006.9825 322.9189 7346324 338.1190 002.3412 02.03471887 83424 HELIOS-2A 1 28492U 04049A 09342.65280378 .00000081 00000-0 24421-4 0 5621 2 28492 098.1032 276.3949 0001504 116.1557 243.9793 14.63856542265662 ESSAIM-1 1 28494U 04049C 09342.61910954 .00000110 00000-0 26767-4 0 6347 2 28494 098.2805 303.9425 0003783 056.4647 303.6900 14.70162313266711 ESSAIM-2 1 28495U 04049D 09342.61861570 .00000112 00000-0 27221-4 0 6581 2 28495 098.2815 304.0628 0004617 050.1900 309.9695 14.70162417266715 ESSAIM-3 1 28496U 04049E 09342.61919833 -.00000015 00000-0 60751-5 0 5878 2 28496 098.2942 308.6273 0009789 059.1704 301.0444 14.70161453266892 ESSAIM-4 1 28497U 04049F 09342.61873613 -.00000018 00000-0 56285-5 0 6448 2 28497 098.2946 308.6727 0012914 054.7758 305.4637 14.70160835266890 MIDSTAR 1 1 30773U 07006B 12037.04343475 .00001527 00000-0 68446-4 0 4066 2 30773 046.0815 256.3954 0009538 001.4423 358.6504 15.26864488273835 CFESAT 1 30777U 07006F 12036.84011730 .00003612 00000-0 24526-3 0 2833 2 30777 035.4326 013.1568 0005277 286.2054 073.8081 15.06032980270180 NFIRE 1 31140U 07014A 12036.65981895 .00011688 00000-0 24119-3 0 7031 2 31140 048.2239 114.4255 0008258 233.3972 126.6208 15.46171670271792 SPIRALE A 1 33751U 09008C 12035.06211790 +.00014243 +00000-0 +86936-3 0 07563 2 33751 001.8564 189.1746 6733088 029.8935 355.3960 03.03496079026170 SPIRALE B 1 33752U 09008D 12037.01225672 .00002744 00000-0 85073-3 0 6636 2 33752 001.8563 225.9818 7211207 316.5690 005.1121 02.36813599 24877 TACSAT 3 1 35001U 09028A 12037.55650866 .00084238 00000-0 61544-3 0 8573 2 35001 040.4461 172.2880 0005687 039.4311 320.6931 15.72154181153621 COSMOS 2472 (Decayed 2011-10-24) 1 37726U 11028A 11297.81469757 .00524004 -98090-6 26589-3 0 3966 2 37726 081.3639 024.2688 0031425 222.5519 288.1812 16.19286169 19186